Regional Weather Roundup
Issued by NWS

Home | Current Version | Previous Version | Text Only | Print | Product List | Glossary Off
Versions: 1 2 3 4 5 6 7 8 9 10 11 12 13 14 15 16 17 18 19 20 21 22 23 24 25 26 27 28 29 30 31 32 33 34 35 36 37 38 39 40 41 42 43 44 45 46 47 48 49 50

000
ASUS45 KABQ 171310
RWRNM
NEW MEXICO REGIONAL WEATHER ROUNDUP
NATIONAL WEATHER SERVICE ALBUQUERQUE NM
600 AM MST WED JAN 17 2018

NOTE: "FAIR" MEANS FEW OR NO CLOUDS BELOW 12,000 FEET AGL WITH NO
       SIGNIFICANT WEATHER OR OBSTRUCTIONS TO VISION.

      THIS PRODUCT IS RELEASED AS TWO VERSIONS.  ONE VERSION NEAR
      THE TOP OF THE HOUR CONTAINING PRELIMINARY DATA FROM ALBUQUERQUE
      AND OTHER STATIONS.  A FINAL VERSION WITH ADDITIONAL DATA IS
      ISSUED ABOUT 10 MINUTES AFTER THE HOUR.

NMZ501-503-504-510>518-171400-
NORTHWEST PLATEAU/NORTHCENTRAL MOUNTAINS

CITY           SKY/WX    TMP DP  RH WIND       PRES   REMARKS
FARMINGTON     FAIR      15  12  88 NE5       30.35R WCI   8
LOS ALAMOS     FAIR      20  14  78 N9G16     30.31S WCI  10
SANTA FE       FAIR      13  11  92 N9        30.32F WCI   1
TAOS           FAIR       8   4  83 CALM      30.35F
ANGEL FIRE     FAIR      -1  -5  83 CALM      30.31F

$$
NMZ402-403-502-505>509-171400-
WESTCENTRAL MOUNTAINS/SOUTHWEST MOUNTAINS

CITY           SKY/WX    TMP DP  RH WIND       PRES   REMARKS
GALLUP         MOCLDY    22  14  71 E5        30.32R WCI  16
GRANTS         FAIR      10   6  84 NW5       30.36S WCI   1
SILVER CITY    FAIR      19  10  66 N3        30.36F

$$
NMZ407-409-411-412-171400-
SOUTHERN DESERTS

CITY           SKY/WX    TMP DP  RH WIND       PRES   REMARKS
DEMING         FAIR      21   5  50 E3        30.41R
LAS CRUCES     FAIR      16   2  53 CALM      30.41R
HOLLOMAN AFB   FAIR      14  -2  49 NW8       30.45F WCI   2
ALAMOGORDO     FAIR      18   1  49 E5        30.43S WCI  11
T OR C         FAIR      23  10  57 CALM      30.38S

$$
NMZ519>523-171400-
CENTRAL VALLEYS/CENTRAL HIGHLANDS

CITY           SKY/WX    TMP DP  RH WIND       PRES   REMARKS
ALBUQUERQUE    FAIR      19  12  74 CALM      30.37S
DOUBLE EAGLE   CLEAR      7   3  85 CALM      30.35
MORIARTY ARPT  FAIR       2  -4  76 CALM      30.34S
CLINES CORNERS FAIR      15   9  76 NW17      30.26F WCI  -1
BELEN          FAIR      10   6  82 NW3       30.39R
SOCORRO        FAIR      16   6  64 CALM      30.39S

$$
NMZ524>526-539-540-171400-
SOUTHCENTRAL MOUNTAINS

CITY           SKY/WX    TMP DP  RH WIND       PRES   REMARKS
RUIDOSO        FAIR      16   7  67 SW6       30.32F WCI   7

$$
NMZ527>531-171400-
NORTHEAST HIGHLANDS/NORTHEAST PLAINS

CITY           SKY/WX    TMP DP  RH WIND       PRES   REMARKS
LAS VEGAS      FAIR      14  12  92 N5        30.23F WCI   6
RATON          FAIR       8   3  80 CALM      30.24F
CLAYTON        FAIR      21  15  78 W14       30.23S WCI   8

$$
NMZ532>537-171400-
EASTCENTRAL PLAINS

CITY           SKY/WX    TMP DP  RH WIND       PRES   REMARKS
SANTA ROSA     FAIR      10   2  71 SE10      30.33F WCI  -4
TUCUMCARI      FAIR      19   2  47 SW8       30.34F WCI   9
CANNON AFB     FAIR       9  -1  64 SW7       30.40F WCI  -2
CLOVIS AIRPORT FAIR      10   2  69 SW10      30.40F WCI  -4

$$
NMZ028-029-538-171400-
SOUTHEAST PLAINS

CITY           SKY/WX    TMP DP  RH WIND       PRES   REMARKS
ROSWELL        FAIR      13  -2  51 CALM      30.43F
ARTESIA        FAIR      14  -4  44 SW6       30.46S WCI   5
CARLSBAD       CLOUDY    25   3  38 SE9       30.46F WCI  15
HOBBS          CLOUDY    16  -2  45 SW6       30.48S WCI   7


$$




USA.gov is the U.S. government's official web portal to all federal, state and local government web resources and services.